This is the latest recevied weather packets stored in our database for station/object KA3RQR. If no packets are shown the sender has not sent any weather packets the latest 10 day(s).
| Time | Temp. | Humidity | Pressure | Rain* | Wind** | Luminosity | Snow |
|---|---|---|---|---|---|---|---|
| 1777408512 | 16.11° C | 71% | 1017.2 hPa | 0 mm | - | 51 W/m² | - |
| 1777408207 | 16.11° C | 71% | 1017.1 hPa | 0 mm | - | 57 W/m² | - |
| 1777407902 | 16.11° C | 72% | 1017.4 hPa | 0 mm | - | 76 W/m² | - |
| 1777407601 | 16.11° C | 71% | 1017.5 hPa | 0 mm | - | 58 W/m² | - |
| 1777407300 | 16.11° C | 71% | 1017.4 hPa | 0 mm | - | 72 W/m² | - |
| 1777406995 | 16.11° C | 70% | 1017.5 hPa | 0 mm | - | 85 W/m² | - |
| 1777406690 | 16.11° C | 71% | 1017.5 hPa | 0 mm | - | 99 W/m² | - |
| 1777406386 | 16.11° C | 71% | 1017.6 hPa | 0 mm | - | 87 W/m² | - |
| 1777406085 | 15.56° C | 71% | 1017.6 hPa | 0 mm | - | 92 W/m² | - |
| 1777405781 | 15.56° C | 71% | 1017.5 hPa | 0 mm | - | 85 W/m² | - |
| 1777405478 | 15.56° C | 70% | 1017.5 hPa | 0 mm | - | 134 W/m² | - |
| 1777405176 | 15.56° C | 70% | 1017.5 hPa | 0 mm | - | 134 W/m² | - |
| 1777404872 | 16.11° C | 70% | 1017.5 hPa | 0 mm | - | 146 W/m² | - |
| 1777404570 | 15.56° C | 70% | 1017.8 hPa | 0 mm | - | 190 W/m² | - |
| 1777404266 | 16.11° C | 70% | 1017.6 hPa | 0 mm | - | 194 W/m² | - |
| 1777403962 | 15.56° C | 70% | 1017.9 hPa | 0 mm | - | 239 W/m² | - |
| 1777403661 | 15.56° C | 71% | 1018 hPa | 0 mm | - | 232 W/m² | - |
| 1777403356 | 15.56° C | 71% | 1017.7 hPa | 0 mm | - | 246 W/m² | - |
| 1777403056 | 15.56° C | 72% | 1017.8 hPa | 0 mm | - | 200 W/m² | - |
| 1777402752 | 15.56° C | 72% | 1018.1 hPa | 0 mm | - | 177 W/m² | - |
| 1777402448 | 15° C | 71% | 1018.2 hPa | 0 mm | - | 185 W/m² | - |
| 1777402146 | 15° C | 71% | 1018.1 hPa | 0 mm | - | 121 W/m² | - |
| 1777401841 | 15° C | 70% | 1018.3 hPa | 0 mm | - | 144 W/m² | - |
| 1777401541 | 15° C | 71% | 1018.2 hPa | 0 mm | - | 203 W/m² | - |
| 1777401236 | 15° C | 72% | 1018.1 hPa | 0 mm | - | 179 W/m² | - |
* Rain latest hour (hover to see other rain measurements)
** Current wind speed in m/s (hover to see current wind gust speed)